Tracking 35274 objects as of 11-Sep-2026
HD Live streaming from Space Station
objects crossing your sky now

STARLINK-36099

Track STARLINK-36099 now!
10-day predictions
STARLINK-36099 is classified as:


NORAD ID: 66797
Int'l Code: 2025-278G
Launch date: December 1, 2025
Source: United States (US)
Launch site: AIR FORCE EASTERN TEST RANGE (AFETR)
Your satellite tracking list
Your tracking list is empty




NASA's NSSDC Master Catalog

Two Line Element Set (TLE):
1 66797U 25278G   26253.43640576  .00018645  00000-0  68499-3 0  9995
2 66797  43.0040 151.0275 0000990 281.2533  78.8207 15.27597452 43467
Source of the keplerian elements: AFSPC